Mojave, CA

9:09 AM PDT on October 20, 2019 (GMT -0700)
Mojave

Weather History for KMHV - May, 2019

Change the Weather History Date:

Friday, May 3, 2019

  Actual Average Record
Temperature  
Mean Temperature 68 °F -  
Max Temperature 82 °F 78 °F 93 °F (2004)
Min Temperature 55 °F 51 °F 39 °F (1971)
Cooling Degree Days 4    
Growing Degree Days 18 (Base 50)    
Moisture  
Dew Point 28 °F    
Average Humidity 23    
Maximum Humidity 39    
Minimum Humidity 8    
Precipitation  
Precipitation 0.00 in - - ()
Sea Level Pressure  
Sea Level Pressure 29.94 in    
Wind  
Wind Speed 8 mph (WNW)    
Max Wind Speed 21 mph    
Max Gust Speed 28 mph    
Visibility 10 miles    
Events      
Averages and records for this station are not official NWS values.
T = Trace of Precipitation, MM = Missing Value Source: NWS Daily Summary

Daily Weather History Graph

Daily Weather History Graph

Search for Another Location

Airport or City:

Astronomy

May. 03, 2019 Rise Set
Actual Time 5:59 AM PDT 7:39 PM PDT
Civil Twilight 5:32 AM PDT 8:07 PM PDT
Nautical Twilight 4:59 AM PDT 8:39 PM PDT
Astronomical Twilight 4:25 AM PDT 9:14 PM PDT
Moon 5:36 AM PDT (5/3) 6:37 PM PDT (5/3)
Length of Visible Light 14h 34m
Length of Day
13h 40m
Waning Crescent, 1% of the Moon is Illuminated
May 3
Waning Crescent
May 4
New
May 11
First Quarter
May 18
Full
May 26
Last Quarter

Hourly Weather History & Observations

Time (PDT) Temp. Dew Point Humidity Pressure Visibility Wind Dir Wind Speed Gust Speed Precip Events Conditions
12:00 AM 60.8 °F 26.6 °F 27% 29.96 in 10.0 mi North 5.8 mph - N/A   Clear
12:20 AM 60.8 °F 23.0 °F 23% 29.97 in 10.0 mi North 5.8 mph 12.7 mph N/A   Clear
12:40 AM 62.6 °F 23.0 °F 22% 29.97 in 10.0 mi Variable 4.6 mph - N/A   Partly Cloudy
1:00 AM 60.8 °F 26.6 °F 27% 29.97 in 10.0 mi WNW 9.2 mph - N/A   Mostly Cloudy
1:20 AM 62.6 °F 28.4 °F 27% 29.96 in 10.0 mi WNW 12.7 mph - N/A   Overcast
1:40 AM 60.8 °F 30.2 °F 31% 29.95 in 10.0 mi NNW 13.8 mph - N/A   Mostly Cloudy
2:00 AM 60.8 °F 26.6 °F 27% 29.95 in 10.0 mi NW 9.2 mph - N/A   Mostly Cloudy
2:20 AM 60.8 °F 24.8 °F 25% 29.94 in 10.0 mi NW 9.2 mph - N/A   Scattered Clouds
2:40 AM 59.0 °F 26.6 °F 29% 29.94 in 10.0 mi NNW 10.4 mph - N/A   Scattered Clouds
3:00 AM 59.0 °F 26.6 °F 29% 29.94 in 10.0 mi WNW 11.5 mph - N/A   Mostly Cloudy
3:20 AM 59.0 °F 26.6 °F 29% 29.95 in 10.0 mi NW 12.7 mph - N/A   Mostly Cloudy
3:40 AM 55.4 °F 28.4 °F 36% 29.95 in 10.0 mi NW 5.8 mph - N/A   Scattered Clouds
4:00 AM 57.2 °F 28.4 °F 33% 29.94 in 10.0 mi NW 5.8 mph - N/A   Partly Cloudy
4:20 AM 57.2 °F 30.2 °F 36% 29.95 in 10.0 mi West 4.6 mph - N/A   Partly Cloudy
4:40 AM 59.0 °F 32.0 °F 36% 29.95 in 10.0 mi NW 10.4 mph - N/A   Partly Cloudy
5:00 AM 59.0 °F 33.8 °F 39% 29.95 in 10.0 mi NW 12.7 mph - N/A   Clear
5:20 AM 59.0 °F 33.8 °F 39% 29.95 in 10.0 mi NW 12.7 mph - N/A   Clear
5:40 AM 57.2 °F 30.2 °F 36% 29.96 in 10.0 mi North 8.1 mph - N/A   Clear
6:00 AM 57.2 °F 26.6 °F 31% 29.96 in 10.0 mi NE 5.8 mph - N/A   Clear
6:20 AM 55.4 °F 26.6 °F 33% 29.97 in 10.0 mi Calm Calm - N/A   Clear
6:40 AM 57.2 °F 28.4 °F 33% 29.98 in 10.0 mi Calm Calm - N/A   Clear
7:00 AM 57.2 °F 28.4 °F 33% 29.98 in 10.0 mi North 4.6 mph - N/A   Clear
7:20 AM 60.8 °F 28.4 °F 29% 29.99 in 10.0 mi Calm Calm - N/A   Clear
7:40 AM 62.6 °F 28.4 °F 27% 29.99 in 10.0 mi ESE 6.9 mph - N/A   Clear
8:00 AM 62.6 °F 30.2 °F 30% 29.99 in 10.0 mi East 4.6 mph - N/A   Clear
8:20 AM 64.4 °F 30.2 °F 28% 30.00 in 10.0 mi ESE 5.8 mph - N/A   Clear
8:40 AM 66.2 °F 30.2 °F 26% 30.00 in 10.0 mi Variable 4.6 mph - N/A   Clear
9:00 AM 66.2 °F 30.2 °F 26% 30.00 in 10.0 mi Calm Calm - N/A   Clear
9:20 AM 68.0 °F 30.2 °F 24% 30.00 in 10.0 mi Calm Calm - N/A   Clear
9:40 AM 69.8 °F 30.2 °F 23% 30.00 in 10.0 mi Calm Calm - N/A   Clear
10:00 AM 69.8 °F 28.4 °F 21% 30.00 in 10.0 mi Calm Calm - N/A   Clear
10:20 AM 71.6 °F 26.6 °F 19% 30.00 in 10.0 mi Calm Calm - N/A   Clear
10:40 AM 71.6 °F 23.0 °F 16% 30.00 in 10.0 mi Variable 3.5 mph - N/A   Clear
11:00 AM 71.6 °F 26.6 °F 19% 30.00 in 10.0 mi Calm Calm - N/A   Clear
11:20 AM 73.4 °F 26.6 °F 18% 30.00 in 10.0 mi Calm Calm - N/A   Clear
11:40 AM 75.2 °F 26.6 °F 17% 29.99 in 10.0 mi Variable 4.6 mph - N/A   Clear
12:00 PM 77.0 °F 24.8 °F 14% 29.98 in 10.0 mi Calm Calm - N/A   Clear
12:20 PM 77.0 °F 23.0 °F 13% 29.97 in 10.0 mi Calm Calm - N/A   Clear
12:40 PM 77.0 °F 23.0 °F 13% 29.97 in 10.0 mi Calm Calm - N/A   Clear
1:00 PM 77.0 °F 17.6 °F 11% 29.96 in 10.0 mi ESE 5.8 mph - N/A   Clear
1:20 PM 78.8 °F 19.4 °F 11% 29.96 in 10.0 mi WSW 5.8 mph 13.8 mph N/A   Clear
1:40 PM 78.8 °F 19.4 °F 11% 29.95 in 10.0 mi SE 6.9 mph - N/A   Clear
2:00 PM 80.6 °F 19.4 °F 10% 29.94 in 10.0 mi Variable 5.8 mph - N/A   Clear
2:20 PM 80.6 °F 19.4 °F 10% 29.93 in 10.0 mi Variable 5.8 mph 13.8 mph N/A   Clear
2:40 PM 80.6 °F 15.8 °F 9% 29.93 in 10.0 mi WSW 8.1 mph 13.8 mph N/A   Clear
3:00 PM 82.4 °F 15.8 °F 8% 29.92 in 10.0 mi Variable 6.9 mph - N/A   Clear
3:20 PM 80.6 °F 14.0 °F 8% 29.91 in 10.0 mi Calm Calm - N/A   Clear
3:40 PM 82.4 °F 14.0 °F 8% 29.90 in 10.0 mi SSW 10.4 mph 17.3 mph N/A   Clear
4:00 PM 82.4 °F 17.6 °F 9% 29.89 in 10.0 mi SSW 12.7 mph - N/A   Clear
4:20 PM 82.4 °F 21.2 °F 10% 29.89 in 10.0 mi WNW 11.5 mph - N/A   Clear
4:40 PM 82.4 °F 33.8 °F 17% 29.89 in 10.0 mi WNW 15.0 mph - N/A   Clear
5:00 PM 82.4 °F 33.8 °F 17% 29.89 in 10.0 mi WNW 17.3 mph - N/A   Clear
5:20 PM 80.6 °F 35.6 °F 20% 29.89 in 10.0 mi WNW 17.3 mph - N/A   Clear
5:40 PM 78.8 °F 35.6 °F 21% 29.89 in 10.0 mi WNW 13.8 mph 21.9 mph N/A   Clear
6:00 PM 78.8 °F 35.6 °F 21% 29.88 in 10.0 mi West 16.1 mph - N/A   Clear
6:20 PM 77.0 °F 35.6 °F 22% 29.88 in 10.0 mi WNW 17.3 mph - N/A   Clear
6:40 PM 75.2 °F 33.8 °F 22% 29.88 in 10.0 mi WNW 17.3 mph - N/A   Clear
7:00 PM 73.4 °F 33.8 °F 23% 29.89 in 10.0 mi WNW 19.6 mph - N/A   Clear
7:20 PM 71.6 °F 33.8 °F 25% 29.89 in 10.0 mi West 17.3 mph - N/A   Clear
7:40 PM 71.6 °F 33.8 °F 25% 29.89 in 10.0 mi WNW 16.1 mph 23.0 mph N/A   Clear
8:00 PM 69.8 °F 32.0 °F 25% 29.90 in 10.0 mi West 18.4 mph - N/A   Clear
8:20 PM 69.8 °F 32.0 °F 25% 29.90 in 10.0 mi WNW 15.0 mph 27.6 mph N/A   Clear
8:40 PM 68.0 °F 32.0 °F 26% 29.90 in 10.0 mi West 17.3 mph - N/A   Clear
9:00 PM 68.0 °F 32.0 °F 26% 29.91 in 10.0 mi West 18.4 mph 24.2 mph N/A   Clear
9:20 PM 68.0 °F 30.2 °F 24% 29.91 in 10.0 mi West 18.4 mph 27.6 mph N/A   Clear
9:40 PM 66.2 °F 30.2 °F 26% 29.91 in 10.0 mi West 20.7 mph - N/A   Clear
10:00 PM 66.2 °F 30.2 °F 26% 29.92 in 10.0 mi West 20.7 mph - N/A   Clear
10:20 PM 66.2 °F 30.2 °F 26% 29.92 in 10.0 mi West 16.1 mph - N/A   Clear
10:40 PM 66.2 °F 30.2 °F 26% 29.92 in 10.0 mi WSW 16.1 mph - N/A   Clear
11:00 PM 64.4 °F 28.4 °F 26% 29.92 in 10.0 mi WSW 11.5 mph 19.6 mph N/A   Clear
11:20 PM 64.4 °F 26.6 °F 24% 29.91 in 10.0 mi West 11.5 mph 19.6 mph N/A   Clear
11:40 PM 66.2 °F 24.8 °F 21% 29.91 in 10.0 mi NW 18.4 mph - N/A   Clear